Theta_e
311 311 313 313 314 302 309 310 305 311 317 311 306 307 309 309 307 304 313 312 319 324 326 326 329 328 330 330 333 336 338 340 339 339 339 341 343 342 341 342 342 347 347 348 348 349 349 349 349 350 352 352 354 354 354 355 357 359 358 361 360 363 365
311 314 313 313 314 313 309 304 309 316 319 314 307 300 305 304 299 305 309 307 311 310 309 324 322 325 327 329 332 334 338 338 339 337 341 345 346 347 347 343 346 347 348 349 349 350 351 350 352 350 353 355 355 356 357 354 355 355 354 356 357 358 362
311 313 312 310 313 314 308 309 316 307 305 303 309 307 300 301 300 303 308 309 311 312 313 321 323 324 324 327 331 335 333 335 336 336 342 344 346 346 346 345 344 345 346 347 350 350 352 352 353 352 354 355 357 356 356 356 353 352 352 351 352 355 357
310 311 309 301 305 312 313 313 310 313 310 307 306 306 308 309 303 301 304 308 306 316 318 321 321 323 328 324 330 331 334 336 336 340 342 343 345 346 349 346 346 343 345 347 349 350 351 352 351 354 355 353 352 356 357 357 356 355 353 350 351 352 355
309 302 306 304 306 304 306 306 306 310 309 313 312 312 306 304 303 301 301 301 309 320 326 325 324 328 328 327 328 332 334 336 338 340 341 344 346 346 347 348 346 345 345 347 348 350 351 352 352 354 354 355 356 357 358 360 358 354 352 351 352 352 353
303 304 309 308 308 309 307 305 305 307 305 304 302 301 310 308 304 299 302 301 312 326 331 330 331 330 330 334 332 332 336 337 338 338 341 343 344 344 345 349 349 349 349 348 349 350 351 351 350 351 355 357 355 356 357 358 356 357 355 353 355 356 355
305 307 310 311 310 311 310 309 306 308 309 309 304 297 303 307 307 309 308 304 310 325 331 330 330 330 332 333 335 335 337 339 338 340 341 342 343 345 346 348 348 349 351 352 352 350 351 351 350 351 351 351 356 358 359 361 361 360 360 357 357 357 355
308 310 311 311 310 310 308 309 309 308 305 309 307 307 308 305 307 304 305 304 311 324 332 335 334 335 334 336 336 334 336 338 338 339 341 342 346 348 348 348 348 349 348 350 348 347 350 352 354 354 355 354 356 360 361 362 361 363 363 362 359 359 357
301 304 307 306 309 308 306 306 308 309 308 309 310 310 310 304 305 305 303 299 312 326 330 333 334 334 332 335 335 336 335 336 337 337 340 341 346 345 346 345 345 345 345 343 346 351 350 351 352 353 351 352 353 356 359 360 361 363 363 366 367 367 366
292 292 295 297 300 303 307 308 308 308 307 307 306 302 305 299 306 308 304 304 319 327 331 331 333 333 333 333 335 336 336 336 336 338 338 340 341 343 342 345 344 342 342 339 344 344 345 352 353 352 352 353 355 357 359 361 361 362 364 365 370 370 368
298 300 306 310 309 306 302 305 307 307 307 309 310 309 305 301 307 306 308 310 317 320 322 327 328 332 331 333 336 335 335 337 338 340 339 339 340 341 341 343 343 346 346 346 345 343 345 349 351 355 356 358 358 358 359 359 360 361 364 365 367 365 365
308 306 308 309 309 305 305 304 304 307 308 308 307 306 304 314 306 300 310 313 311 317 322 324 329 330 333 333 335 334 336 337 338 339 341 341 340 342 342 344 343 344 346 347 348 350 349 350 351 351 349 355 358 358 357 357 359 361 362 362 363 363 363
306 307 307 308 308 307 306 305 306 306 308 308 306 306 308 310 305 303 312 316 311 318 319 326 328 332 332 332 333 334 336 337 339 341 340 339 339 340 340 342 345 346 346 347 346 347 348 349 350 352 353 354 355 356 356 354 354 357 361 361 360 359 362
306 306 308 309 307 307 307 306 308 309 308 308 308 307 309 309 311 312 315 322 321 322 326 326 332 334 333 333 334 335 335 336 337 338 339 339 340 339 340 343 341 344 345 346 346 346 347 347 348 349 350 349 350 352 354 355 355 357 358 359 359 358 357
305 307 308 308 308 308 306 309 309 309 309 308 308 308 312 312 313 313 318 318 319 327 331 330 333 334 334 334 331 332 334 335 336 337 339 339 338 338 340 341 341 342 343 344 345 346 346 347 348 348 349 350 351 352 352 352 352 353 354 355 357 356 357
303 308 308 309 309 308 309 309 311 312 309 306 310 313 317 314 314 313 318 317 319 326 330 330 331 331 331 330 331 332 333 335 336 336 337 337 335 334 333 337 340 340 340 341 342 343 343 344 344 346 349 351 350 349 351 352 354 357 357 357 356 356 355
304 307 307 307 308 307 304 304 309 312 312 317 317 317 318 319 316 315 313 313 323 327 328 327 328 329 330 331 332 333 334 335 336 336 334 334 335 334 335 337 338 339 339 339 339 340 341 343 344 346 348 347 348 350 350 352 355 355 355 355 354 353 352
302 305 306 307 304 297 296 308 314 316 312 315 314 316 318 319 320 319 322 324 327 326 326 325 327 328 331 332 336 336 335 334 333 333 334 334 337 337 337 337 336 336 337 337 339 340 340 340 340 341 341 340 341 343 345 349 351 350 349 348 347 346 347
301 304 306 300 295 297 308 313 315 318 316 316 314 317 318 319 322 323 321 325 326 326 328 328 330 332 331 333 333 333 332 331 330 331 329 333 338 337 336 335 335 335 336 337 338 336 335 335 337 338 337 337 336 335 337 340 343 343 341 339 339 341 341
303 301 299 291 294 306 309 311 314 316 318 317 316 312 318 320 321 323 323 325 327 327 327 328 330 329 329 331 331 331 334 335 334 333 331 334 336 335 336 336 335 334 334 335 334 334 335 335 334 333 332 331 330 329 331 332 334 336 336 335 335 338 339
298 301 299 299 305 305 307 308 310 310 312 311 312 308 312 320 321 324 323 325 326 327 326 326 326 329 328 326 326 329 332 333 335 336 336 336 334 336 337 336 334 335 335 332 331 332 333 332 331 330 330 329 329 329 329 329 329 329 330 331 332 334 336
303 300 298 298 298 292 301 310 312 314 314 315 317 315 309 320 323 326 325 324 325 325 325 325 326 327 323 318 319 323 325 328 330 332 331 335 335 334 334 334 335 336 335 333 332 330 329 329 329 331 331 330 329 328 327 327 327 327 327 326 329 330 332
302 300 297 295 293 298 309 310 312 313 314 314 316 313 303 314 321 324 326 326 326 325 324 325 326 324 316 313 317 322 324 326 328 328 333 334 336 334 333 333 332 332 333 332 330 330 329 326 328 329 329 328 325 323 324 324 325 324 324 325 326 327 330
305 301 296 295 300 302 308 311 312 313 314 315 312 299 301 312 318 323 325 325 327 328 329 329 327 321 315 315 319 325 326 327 327 327 329 331 334 335 335 335 334 332 333 332 330 328 327 327 328 327 326 325 326 325 325 325 324 324 327 327 329 328 329
300 300 301 302 302 307 310 311 314 316 317 311 300 294 305 315 319 322 325 322 326 330 328 326 321 324 326 324 325 326 328 328 329 330 331 331 332 331 331 330 333 330 328 327 325 324 326 325 323 325 327 326 325 325 323 322 322 324 325 324 324 329 333
300 301 298 299 302 308 312 315 315 318 314 304 299 309 318 319 319 324 324 324 327 325 327 328 326 328 328 326 327 326 327 326 326 327 329 330 328 329 332 331 331 330 327 328 326 325 325 324 325 325 325 325 325 324 322 319 319 322 328 329 327 326 328
304 304 298 295 291 308 316 315 315 317 308 307 315 318 318 320 320 322 323 325 326 328 325 327 328 327 326 327 327 326 325 325 326 327 329 329 328 328 329 330 328 326 325 325 326 326 326 324 325 325 324 324 324 324 324 326 327 327 324 322 326 328 329
295 298 295 294 305 312 317 316 308 311 314 318 320 319 316 319 321 323 322 324 326 327 327 327 327 328 327 327 326 326 326 326 326 327 328 329 330 329 329 328 327 327 327 326 325 325 324 326 325 324 324 324 325 324 324 327 327 328 328 327 326 323 324
306 302 305 311 313 315 317 316 314 315 317 319 320 318 317 318 319 325 323 322 325 326 327 328 328 327 328 327 327 326 325 326 326 327 327 327 329 328 327 326 328 327 326 325 325 326 327 327 327 325 324 324 323 322 324 327 327 326 326 327 327 326 326
313 313 313 315 314 314 314 318 319 317 317 317 318 318 318 320 321 323 324 325 325 326 327 325 325 327 328 328 326 325 325 325 327 328 328 328 329 328 327 328 328 326 325 325 325 324 325 325 325 327 325 325 324 325 326 326 327 327 325 324 325 324 325
304 299 314 312 312 316 316 315 317 319 319 318 318 319 319 320 321 322 325 327 325 325 326 326 328 328 329 328 327 325 325 326 327 327 327 328 328 327 327 328 327 325 324 321 322 322 323 325 325 325 326 325 326 327 327 327 327 327 327 325 324 325 324
305 308 313 314 316 317 318 317 317 316 317 319 319 319 320 322 323 322 324 326 326 327 326 327 327 327 328 328 328 326 326 326 327 328 328 328 328 329 329 327 326 326 324 322 322 322 323 325 326 325 326 325 327 328 327 326 325 327 327 327 326 326 324
309 313 313 313 316 313 313 317 320 320 319 319 318 319 319 319 320 322 322 322 323 324 325 327 326 325 326 328 329 328 326 327 327 328 329 329 328 329 328 327 327 326 324 323 324 323 322 323 324 325 325 326 326 326 326 326 326 324 321 321 324 321 321
304 305 309 311 305 307 313 315 316 317 319 320 319 319 318 318 319 320 320 321 322 324 324 325 325 324 326 327 328 329 328 328 328 327 328 329 330 329 329 328 328 327 326 326 325 324 324 325 324 324 323 323 324 323 324 324 324 324 323 323 323 322 323
303 311 314 315 314 316 317 317 318 318 319 320 319 319 319 319 319 319 320 320 321 321 323 324 324 325 325 325 326 327 328 327 329 330 329 328 329 328 329 327 327 327 326 326 325 325 325 325 323 323 324 324 325 323 325 325 324 324 325 323 322 322 321
314 316 316 315 312 312 316 319 319 319 320 320 319 319 320 319 319 320 321 320 320 321 322 322 324 324 325 326 324 324 325 327 330 330 330 329 329 327 327 328 327 326 325 325 325 324 325 325 323 323 320 321 323 322 323 325 324 324 324 321 320 321 322
313 316 317 317 316 318 320 320 320 320 320 320 319 320 321 320 320 320 320 321 321 321 321 322 322 323 324 324 324 324 325 326 328 328 329 327 326 326 325 326 327 326 325 325 326 326 325 324 322 322 322 321 322 321 322 322 323 323 323 323 320 319 320
Wind_Speed
15 16 14 13 8 10 9 10 12 8 3 6 7 10 11 11 10 7 7 9 4 5 3 8 4 10 10 8 12 15 18 19 19 15 18 17 14 13 15 13 16 17 16 16 14 15 14 14 13 13 13 12 12 11 11 12 12 12 12 11 10 9 9
10 13 15 14 12 10 4 11 10 8 6 6 5 6 3 5 4 4 4 5 2 7 5 6 9 8 10 10 10 16 14 16 17 17 17 13 12 10 10 16 15 17 16 16 15 14 14 13 12 14 13 12 11 10 11 12 12 13 12 12 12 10 10
11 10 12 15 12 13 11 8 10 12 11 11 9 4 8 9 8 7 4 11 13 12 7 7 5 6 11 10 13 11 16 17 18 15 17 14 12 14 15 18 18 16 15 15 14 14 13 13 14 13 13 12 11 12 12 12 12 12 12 11 11 10 10
11 11 11 13 13 14 14 10 10 14 10 8 7 8 5 4 6 4 4 7 1 9 8 10 8 4 6 7 13 13 14 16 15 16 19 18 14 11 8 12 15 16 16 17 15 13 14 13 12 12 13 13 14 13 12 11 11 11 11 11 11 11 11
12 12 11 13 13 14 13 10 9 9 9 5 8 7 9 6 2 4 5 6 1 2 3 9 9 10 12 9 13 11 11 12 15 17 18 15 12 10 6 9 12 15 16 16 15 14 14 14 12 11 12 11 11 12 11 11 11 12 12 11 10 9 9
12 10 12 15 14 14 13 12 11 9 11 13 12 11 9 12 9 6 7 2 2 2 3 7 6 8 9 10 11 10 10 15 13 14 15 16 13 10 10 8 9 9 11 14 13 11 12 13 12 11 7 8 11 10 11 11 11 11 10 10 8 8 9
9 12 13 14 16 14 14 13 13 15 12 9 11 9 10 10 12 11 8 8 4 1 3 4 7 4 7 6 8 10 9 10 13 11 14 15 14 12 10 6 6 10 8 7 3 6 12 12 12 9 7 3 7 10 9 9 8 9 9 9 8 7 8
10 9 12 15 18 14 13 14 13 14 14 13 12 11 9 8 7 8 6 9 4 7 1 3 5 6 7 7 8 12 10 8 12 12 13 15 14 12 10 8 8 9 11 10 4 8 7 9 10 9 7 10 11 7 6 7 7 8 8 7 8 8 9
5 7 10 10 12 10 9 10 13 14 15 15 12 12 10 12 11 10 7 12 4 1 1 3 5 8 10 9 12 9 9 7 7 12 12 13 13 13 11 9 7 8 9 8 4 5 1 6 9 11 10 8 6 6 5 5 5 6 7 6 7 8 8
11 9 11 10 11 13 9 12 14 17 18 18 14 12 10 9 11 17 12 5 4 5 2 4 5 9 10 11 9 8 10 11 11 12 12 12 12 12 11 8 7 8 6 7 5 8 1 4 6 7 6 7 6 6 5 4 5 5 6 6 6 7 7
10 4 6 9 9 11 14 14 14 17 20 16 12 9 12 12 8 7 6 4 7 5 1 3 8 7 11 10 9 7 8 10 12 12 12 13 12 11 12 9 7 7 8 8 9 9 9 6 2 4 5 6 6 6 7 5 4 6 7 7 6 6 7
8 7 9 10 13 13 14 16 18 12 10 12 13 11 8 7 5 10 5 7 8 6 7 6 6 8 8 9 7 6 3 9 11 12 12 12 12 11 11 10 10 9 8 8 8 8 8 6 5 4 4 4 6 6 6 5 5 6 6 7 7 7 7
13 12 10 10 11 14 16 18 12 14 12 11 15 12 13 5 9 4 7 7 6 11 10 7 6 6 9 9 8 6 4 4 10 12 11 11 12 12 12 10 9 9 8 8 6 5 5 6 6 5 4 4 3 3 4 5 6 7 6 6 8 8 7
10 11 9 8 16 11 6 4 7 11 15 15 13 12 16 6 4 6 9 8 15 7 4 5 8 8 10 10 7 7 4 6 8 11 12 11 11 12 12 12 10 8 8 7 7 6 6 5 5 6 5 5 5 6 6 6 6 6 6 7 8 8 9
8 9 11 11 12 7 4 5 9 9 10 12 10 5 5 2 5 8 7 4 6 5 8 7 6 7 9 7 9 7 6 7 9 10 12 12 12 11 9 8 8 7 6 7 8 7 6 6 6 7 6 4 5 5 4 5 5 5 6 7 9 10 10
8 10 11 9 8 10 9 2 3 2 8 6 3 5 3 4 2 8 11 3 6 5 7 6 6 8 7 8 8 8 6 6 8 10 11 13 11 7 5 4 5 6 6 5 5 6 7 6 5 4 4 5 5 6 6 6 4 4 6 5 6 8 10
8 7 11 6 8 12 10 5 5 7 13 10 8 3 2 4 5 4 4 4 4 6 4 6 6 6 9 9 9 9 8 7 8 10 11 11 9 9 6 8 8 8 8 9 9 7 5 5 6 6 3 0 2 4 6 5 2 3 4 5 7 6 4
7 8 5 11 9 8 2 4 5 8 5 6 5 7 8 9 5 6 2 7 7 6 6 6 7 6 6 7 8 8 8 7 9 9 8 6 10 12 12 11 10 10 8 7 7 7 7 7 6 6 7 8 7 7 6 4 3 4 3 5 6 5 4
1 12 10 9 8 2 3 7 5 8 9 5 12 10 12 11 11 11 10 8 7 6 7 7 8 11 12 12 12 11 10 11 5 4 4 7 9 13 13 12 11 10 9 9 9 9 9 8 7 6 7 7 7 8 8 7 6 6 7 7 6 5 5
7 6 6 6 4 4 3 7 8 8 2 4 5 12 12 12 10 7 7 7 7 10 11 10 8 11 12 11 12 12 10 7 3 7 5 1 4 12 10 13 11 10 10 9 9 9 8 9 8 8 8 8 9 10 9 8 8 8 7 7 8 7 6
7 7 3 4 2 3 1 4 7 9 6 6 6 6 10 11 8 9 7 7 9 10 10 9 8 9 10 10 10 12 9 11 9 10 8 6 9 11 12 13 12 11 11 10 11 10 9 9 9 8 8 8 8 8 8 8 8 8 9 8 8 7 7
9 6 7 8 2 2 4 3 3 7 6 7 7 3 11 10 9 9 6 7 6 7 7 8 8 9 9 9 7 8 12 13 12 11 9 9 12 12 12 11 11 12 11 11 11 11 11 10 10 9 8 8 9 9 8 8 8 8 8 9 8 8 8
5 6 8 4 7 4 2 5 7 8 7 9 9 5 8 8 10 9 7 6 4 5 6 9 8 6 7 7 7 7 11 11 11 10 9 10 9 8 9 10 12 12 12 12 13 12 12 12 10 10 10 10 10 9 8 8 8 9 8 7 8 7 8
6 5 6 6 1 4 3 5 5 7 7 8 4 4 4 8 10 6 7 8 6 5 6 5 6 5 9 8 6 6 9 9 9 8 7 7 9 8 8 9 11 13 13 13 13 12 11 10 8 8 8 7 8 7 6 6 7 6 5 3 5 7 7
10 14 3 4 6 4 4 2 4 3 5 6 5 1 7 6 7 7 8 8 6 5 5 8 3 4 5 8 10 8 7 8 9 7 6 9 10 11 9 10 9 10 11 11 12 12 10 8 7 6 5 7 7 7 6 7 8 7 7 8 8 5 0
5 3 4 0 5 5 4 2 2 3 6 2 4 5 3 5 5 5 7 7 7 7 5 5 6 6 9 13 11 10 9 9 9 8 9 12 13 13 8 9 8 10 9 10 12 12 11 9 7 6 7 7 7 6 6 7 8 6 5 5 5 5 7
6 6 5 1 2 3 7 2 2 10 3 6 4 4 5 4 4 5 5 6 7 6 6 7 7 9 11 12 11 10 9 8 8 8 8 9 12 11 10 9 9 10 9 10 10 10 9 9 8 7 7 8 7 7 7 6 6 6 5 5 4 5 5
2 2 2 3 5 6 9 6 5 6 8 5 3 1 6 6 5 4 4 6 6 5 4 5 6 8 10 10 9 8 8 8 9 9 9 7 9 10 9 9 9 10 10 9 9 9 8 8 8 8 7 7 6 6 7 5 5 5 5 5 4 4 4
5 6 7 7 7 8 9 10 10 9 8 5 5 7 7 6 6 5 5 4 4 5 5 5 4 6 6 7 7 7 8 9 9 9 9 10 10 10 9 10 9 8 9 9 8 8 7 7 7 8 7 7 7 7 5 4 4 4 4 3 3 4 4
10 10 9 6 7 8 9 8 7 8 7 7 7 8 7 7 7 7 6 6 5 4 3 4 4 2 3 5 7 7 7 7 7 6 8 9 8 9 9 9 8 8 9 9 9 9 8 8 7 6 7 7 7 6 4 4 4 4 4 4 4 3 3
4 4 5 7 7 6 8 8 7 6 6 7 6 7 7 7 7 7 8 7 6 5 2 3 3 4 4 4 6 7 5 6 7 7 6 5 6 11 9 9 7 7 8 7 8 9 9 8 7 7 7 7 7 5 4 4 4 3 3 3 3 2 2
1 8 7 7 7 5 4 4 6 6 6 6 6 5 5 6 6 7 6 5 6 3 3 3 1 3 4 4 6 6 6 6 6 6 6 7 7 7 8 8 6 7 7 7 8 8 8 7 6 7 6 5 6 5 4 4 4 3 2 1 2 3 3
8 5 7 6 5 5 4 5 7 6 5 5 5 5 4 6 6 6 6 6 6 6 6 4 3 2 3 4 5 5 7 6 6 6 6 6 7 8 9 8 8 7 7 7 8 8 8 7 6 6 6 5 4 4 4 4 2 1 2 1 2 1 1
4 5 8 7 5 6 5 5 5 5 4 3 4 4 4 6 6 5 5 6 5 5 5 4 3 2 2 1 3 4 7 5 5 7 7 7 7 8 8 8 8 8 8 8 7 7 7 6 6 6 6 5 4 4 4 4 3 3 2 1 0 1 2
6 4 8 2 5 4 6 6 4 4 3 3 3 4 4 4 5 5 5 5 5 5 5 5 3 3 2 1 1 2 3 5 5 5 7 7 7 7 8 8 9 9 8 8 8 8 6 6 6 5 5 4 4 4 3 3 3 2 1 1 1 2 2
6 4 5 3 2 3 7 6 4 4 3 3 3 3 3 3 4 4 4 5 5 4 4 4 5 4 2 2 2 3 2 2 4 4 5 6 7 7 8 7 9 10 9 8 8 8 6 6 6 6 6 5 3 5 4 3 3 2 0 0 0 2 3
3 7 5 4 4 6 6 5 4 4 2 3 3 3 4 3 4 4 3 4 4 4 3 4 4 4 3 2 2 2 3 2 1 1 3 5 6 8 9 9 10 10 9 9 8 8 7 7 6 6 6 6 5 5 5 4 3 3 0 1 2 2 2
Wind_Direction
180 202 206 234 221 221 178 211 222 223 144 191 242 254 274 244 244 239 150 252 86 106 143 150 142 149 142 165 140 151 161 168 172 180 182 187 183 184 183 182 184 178 174 176 177 173 176 177 179 179 173 169 176 171 172 180 182 184 186 188 188 185 187
196 202 207 221 217 259 182 206 217 213 186 185 199 253 266 264 234 239 176 234 196 224 171 195 168 172 151 149 149 145 154 165 175 183 184 173 178 183 197 183 191 177 176 179 176 175 183 171 180 177 176 172 174 177 175 180 182 187 192 190 192 189 188
183 187 201 220 229 240 265 236 184 219 173 193 187 238 226 228 228 255 207 225 200 210 159 200 167 200 159 165 144 150 163 174 175 188 175 169 181 180 196 185 182 177 178 180 174 180 175 172 183 175 173 174 178 184 182 185 187 188 195 193 193 189 194
177 188 202 213 195 216 233 284 246 195 215 226 205 198 265 267 272 277 232 274 346 47 178 133 191 170 204 141 142 170 180 171 177 181 175 175 179 176 185 175 176 178 178 177 178 180 169 177 185 173 177 179 185 183 184 187 192 194 200 200 188 194 196
176 204 196 216 199 194 202 216 244 209 224 207 250 211 216 234 233 226 242 236 49 39 5 150 164 160 136 185 162 175 167 163 179 176 171 169 167 155 195 174 171 177 178 176 176 180 179 177 173 174 176 190 182 187 183 185 192 198 198 203 192 195 200
190 213 191 220 215 200 204 211 213 225 199 209 208 223 211 229 214 233 254 305 164 144 282 138 181 143 155 180 142 146 180 164 173 165 173 167 165 159 173 168 175 142 204 171 177 176 178 173 171 178 170 184 187 196 178 190 193 198 197 200 202 193 205
224 218 197 206 233 218 211 204 213 227 242 220 224 231 213 221 238 246 254 253 156 316 269 127 117 178 127 127 135 123 145 151 155 155 164 168 167 161 153 156 177 167 144 66 33 212 183 172 166 154 150 143 257 183 177 181 195 192 198 192 196 197 204
273 205 215 190 220 232 215 204 217 216 230 217 227 237 234 244 239 236 232 249 127 236 218 78 104 88 123 123 111 130 152 154 140 158 167 162 155 140 114 106 82 80 77 84 136 233 239 171 144 145 159 184 202 166 167 168 195 183 188 190 187 193 199
242 230 184 188 197 214 231 219 196 224 225 232 238 255 250 240 230 235 251 254 121 132 244 99 143 130 127 120 124 128 130 129 145 152 163 163 154 152 140 126 99 88 97 89 43 50 142 146 163 164 175 155 147 151 157 174 188 185 178 176 175 186 194
207 214 202 189 200 208 217 240 198 201 231 225 218 220 230 247 250 233 215 223 51 102 118 164 142 124 112 110 102 123 136 146 151 147 156 158 163 161 157 133 117 110 128 149 152 114 50 345 82 100 121 135 143 144 162 171 168 172 171 179 174 175 188
238 256 327 305 253 196 219 210 234 204 210 232 250 251 230 228 220 256 242 256 146 121 185 183 143 138 125 117 120 108 133 127 134 141 145 153 154 160 158 147 133 135 143 162 151 163 187 178 137 102 109 125 134 141 151 163 172 182 178 180 186 195 198
257 235 239 246 242 223 209 217 213 236 218 206 226 220 232 31 312 232 271 217 178 158 166 184 142 135 119 110 98 83 65 143 139 138 141 147 150 158 152 151 157 154 147 153 157 167 172 173 179 171 175 171 158 155 161 164 177 194 188 192 195 203 204
234 238 235 235 240 236 210 216 212 203 220 219 225 232 263 237 248 286 8 9 263 154 165 151 153 138 121 117 111 106 74 98 134 142 142 145 146 152 150 151 151 149 155 154 147 151 148 157 155 144 148 162 162 175 199 194 192 204 204 202 208 206 206
236 212 244 229 227 233 265 242 247 235 209 216 224 233 235 235 273 275 49 40 47 25 85 116 104 103 114 108 104 120 155 117 115 131 137 137 141 139 129 125 128 130 137 142 156 158 156 155 173 186 182 171 180 183 183 183 196 209 214 220 223 221 216
243 213 210 222 225 199 228 242 247 248 242 229 223 260 326 264 219 259 141 109 88 35 48 98 100 116 116 135 140 129 133 146 152 141 136 124 113 105 90 98 128 142 157 155 158 150 146 141 164 184 194 185 182 172 184 202 213 227 232 222 222 226 221
255 214 199 202 160 178 157 94 37 243 210 205 251 164 321 245 181 189 104 134 122 105 97 82 116 119 130 132 129 129 139 147 153 140 126 121 104 106 137 137 122 125 128 142 131 115 116 129 155 188 201 181 193 205 205 211 204 200 205 202 200 216 224
232 184 218 162 201 156 158 82 359 34 13 342 106 94 164 35 104 288 185 162 75 115 103 128 125 137 128 133 135 127 128 124 116 113 112 97 121 161 169 130 131 126 119 112 108 115 112 86 76 67 55 152 206 223 223 227 226 212 207 218 227 229 241
289 284 232 177 200 181 122 351 7 38 93 240 122 63 53 52 43 106 58 112 143 125 128 139 153 124 97 109 98 100 102 93 94 91 95 145 145 135 126 114 99 88 98 100 103 97 92 83 73 69 55 52 42 38 38 56 74 51 81 70 64 59 59
231 293 252 229 193 118 335 48 3 84 134 52 59 53 47 55 70 100 132 156 121 103 107 107 98 98 80 72 76 66 66 85 96 138 159 243 136 126 118 111 107 105 103 103 96 87 80 83 83 79 70 66 61 47 33 34 50 72 72 69 63 57 74
208 239 238 235 106 110 162 66 35 346 323 37 136 72 48 46 38 46 63 67 89 108 104 96 105 99 100 98 84 79 76 71 113 109 117 307 128 117 117 113 114 115 112 109 99 90 90 84 78 70 69 64 61 56 41 35 42 51 58 64 70 74 73
242 212 137 85 187 224 145 78 16 11 21 5 25 79 57 42 38 32 58 70 91 97 111 116 117 115 106 92 81 68 84 125 117 108 122 132 111 103 98 103 110 111 107 100 99 97 93 92 90 86 83 82 76 67 54 48 50 59 69 62 58 59 64
251 227 166 150 133 159 282 41 359 5 1 333 332 350 79 41 34 43 46 82 99 106 123 144 128 115 108 88 72 43 44 45 62 70 91 100 97 99 106 112 109 106 103 104 100 99 94 89 89 95 97 94 90 79 72 65 58 51 50 56 51 31 27
196 242 213 185 180 125 38 43 348 6 353 337 350 313 84 30 21 25 32 54 57 95 137 148 161 137 96 96 92 65 51 61 65 65 60 49 39 72 99 109 109 102 97 98 102 100 99 99 105 102 97 91 82 75 67 61 57 58 59 59 57 58 62
247 193 210 188 134 110 71 29 342 358 357 331 286 218 65 8 5 9 22 54 48 55 94 88 68 81 119 136 119 105 108 113 113 94 80 102 109 87 80 82 95 107 113 114 109 106 100 95 90 87 91 89 92 100 104 108 91 80 85 100 91 61 20
224 247 91 93 104 85 55 12 3 328 356 299 253 220 54 4 342 2 353 53 31 43 87 112 102 177 187 148 153 140 116 94 79 87 114 118 104 94 95 114 142 129 121 113 107 101 96 96 87 83 90 91 92 91 87 78 74 76 76 75 59 40 131
284 248 144 208 87 49 319 45 335 356 268 213 72 57 359 353 8 14 358 30 62 87 50 70 129 120 127 142 147 143 147 133 129 129 114 103 103 109 131 137 109 81 86 95 106 110 112 106 99 92 88 87 88 92 92 94 98 95 89 90 101 81 57
171 200 129 140 147 54 351 331 165 9 357 87 98 106 61 24 46 22 34 19 47 50 71 74 103 125 138 146 146 143 136 140 142 134 131 135 127 133 139 122 116 119 118 112 101 101 103 102 97 94 92 90 86 81 78 78 97 104 97 90 83 82 80
297 246 120 87 44 53 31 31 78 61 60 84 48 7 92 55 37 39 54 41 31 47 107 99 100 113 131 135 138 139 136 138 137 134 130 127 130 138 131 124 129 126 117 108 109 104 99 103 104 99 98 94 92 91 81 62 66 75 89 106 112 102 98
17 57 89 98 89 77 70 76 89 87 91 76 53 70 59 47 52 21 79 85 65 22 67 93 109 131 136 137 147 146 137 137 139 140 141 144 153 139 139 126 119 119 107 105 106 110 109 104 101 106 107 109 105 99 92 82 69 74 80 81 78 79 78
89 79 90 124 98 86 87 80 71 79 75 70 58 48 65 50 47 41 38 33 68 81 59 117 142 121 116 150 145 132 137 132 122 135 141 151 159 136 138 130 143 124 127 125 116 104 100 101 106 113 117 116 112 105 112 107 103 81 69 66 63 69 85
209 102 126 100 115 107 88 92 99 93 67 58 53 68 61 56 49 55 46 40 46 42 54 47 84 119 145 167 147 137 142 127 134 144 143 156 155 133 148 130 137 136 120 114 111 111 106 106 107 104 102 108 110 118 112 115 101 94 88 79 76 73 76
8 103 110 103 90 101 113 131 124 103 86 75 69 64 67 71 64 48 40 40 58 13 68 61 46 134 144 169 140 157 160 143 145 141 142 139 123 136 137 145 146 125 120 118 117 112 108 103 106 112 120 119 127 129 122 99 94 119 138 170 162 154 172
99 122 140 133 139 132 138 81 64 68 83 93 78 62 61 79 69 67 74 39 39 32 38 38 24 73 90 142 149 184 162 152 154 152 155 155 157 147 151 143 139 130 129 126 123 126 123 127 122 119 118 119 111 110 104 103 112 86 66 48 352 8 49
174 181 151 158 200 163 139 123 107 98 94 85 84 68 56 48 49 39 44 68 58 42 33 32 29 35 85 86 123 200 157 156 161 170 164 169 160 160 153 149 146 141 140 136 136 130 132 134 133 133 129 131 154 138 130 124 128 117 134 134 169 6 14
117 114 117 134 69 80 88 110 108 97 78 80 72 59 47 42 50 39 26 35 54 45 36 25 22 27 355 48 143 188 146 159 202 171 175 173 167 175 165 164 152 149 147 147 144 141 142 145 141 136 137 146 142 118 106 114 126 122 182 199 191 139 75
91 95 94 75 337 76 136 124 128 112 78 86 96 60 46 36 27 39 46 37 24 40 41 37 20 19 18 340 292 249 222 186 160 175 187 187 183 184 177 175 158 151 153 157 155 153 152 160 148 152 150 142 134 126 133 119 117 121 169 176 39 37 81
79 97 96 78 111 112 126 129 125 109 90 342 61 89 62 60 48 20 25 36 38 20 30 39 44 29 12 17 320 302 278 259 250 182 190 207 217 201 193 177 171 167 163 161 161 160 166 162 158 166 152 151 162 134 131 136 135 129 133 349 63 88 73